When you browse on this site, cookies collect data to enhance your experience and personalize the content and advertising you see.
Visit our Privacy Policy to learn more. By continuing to use the site, you agree to this use of cookies and data.
EN

Hourly Weather Dubivka

Today, 7 August, Friday

Time Temperature Precipitation Wind Pressure Humidity
00:00 +20°C° 0 mm 2 mps 737 mmHg 68%
01:00 +20°C° 0 mm 2 mps 737 mmHg 69%
02:00 +19°C° 0 mm 2 mps 737 mmHg 70%
03:00 +19°C° 0 mm 2 mps 737 mmHg 71%
04:00 +18°C° 0 mm 2 mps 737 mmHg 71%
05:00 +18°C° 0 mm 2 mps 737 mmHg 72%
06:00 +19°C° 0 mm 3 mps 737 mmHg 71%
07:00 +21°C° 0 mm 3 mps 737 mmHg 69%
08:00 +24°C° 0 mm 3 mps 738 mmHg 67%
09:00 +25°C° 0 mm 3 mps 738 mmHg 63%
10:00 +27°C° 0 mm 3 mps 738 mmHg 58%
11:00 +29°C° 0 mm 3 mps 738 mmHg 54%
12:00 +29°C° 0 mm 3 mps 738 mmHg 52%
13:00 +29°C° 0 mm 3 mps 738 mmHg 50%
14:00 +30°C° 0 mm 3 mps 738 mmHg 48%
15:00 +30°C° 0 mm 3 mps 737 mmHg 51%
16:00 +29°C° 0 mm 3 mps 737 mmHg 54%
17:00 +29°C° 0 mm 3 mps 737 mmHg 57%
18:00 +27°C° 0 mm 3 mps 737 mmHg 63%
19:00 +25°C° 0 mm 3 mps 737 mmHg 69%
20:00 +24°C° 0 mm 2 mps 737 mmHg 76%
21:00 +23°C° 0 mm 2 mps 737 mmHg 80%
22:00 +21°C° 0 mm 3 mps 737 mmHg 85%
23:00 +20°C° 0 mm 3 mps 737 mmHg 90%

Tomorrow, 8 August, Saturday

Time Temperature Precipitation Wind Pressure Humidity
00:00 +20°C° 0 mm 3 mps 737 mmHg 91%
01:00 +20°C° 0 mm 3 mps 737 mmHg 93%
02:00 +19°C° 0 mm 3 mps 736 mmHg 95%
03:00 +19°C° 0 mm 3 mps 737 mmHg 95%
04:00 +19°C° 0 mm 3 mps 737 mmHg 95%
05:00 +18°C° 0 mm 3 mps 737 mmHg 96%
06:00 +20°C° 0 mm 3 mps 737 mmHg 90%
07:00 +21°C° 0 mm 3 mps 737 mmHg 85%
08:00 +22°C° 0 mm 3 mps 737 mmHg 79%
09:00 +24°C° 0 mm 3 mps 737 mmHg 73%
10:00 +26°C° 0 mm 4 mps 737 mmHg 68%
11:00 +27°C° 0 mm 4 mps 737 mmHg 62%
12:00 +27°C° 0 mm 4 mps 736 mmHg 60%
13:00 +28°C° 0 mm 4 mps 736 mmHg 58%
14:00 +28°C° 0 mm 4 mps 736 mmHg 56%
15:00 +28°C° 0 mm 4 mps 736 mmHg 57%
16:00 +27°C° 0 mm 4 mps 735 mmHg 59%
17:00 +27°C° 0 mm 4 mps 735 mmHg 60%
18:00 +25°C° 0 mm 3 mps 735 mmHg 66%
19:00 +24°C° 0 mm 3 mps 735 mmHg 72%
20:00 +21°C° 0 mm 2 mps 735 mmHg 78%
21:00 +20°C° 0 mm 2 mps 735 mmHg 80%
22:00 +20°C° 0 mm 2 mps 735 mmHg 83%
23:00 +19°C° 0 mm 2 mps 735 mmHg 85%

Day after tomorrow, 9 August, Sunday

Time Temperature Precipitation Wind Pressure Humidity
00:00 +19°C° 0 mm 2 mps 735 mmHg 86%
01:00 +19°C° 0 mm 1 mps 735 mmHg 88%
02:00 +19°C° 0 mm 1 mps 735 mmHg 89%
03:00 +18°C° 0 mm 1 mps 735 mmHg 90%
04:00 +18°C° 0 mm 1 mps 735 mmHg 90%
05:00 +18°C° 0 mm 1 mps 735 mmHg 91%
06:00 +19°C° 0 mm 2 mps 735 mmHg 86%
07:00 +20°C° 0 mm 2 mps 735 mmHg 80%
08:00 +23°C° 0 mm 2 mps 735 mmHg 75%
09:00 +24°C° 0.1 mm 2 mps 735 mmHg 71%
10:00 +25°C° 0.1 mm 2 mps 735 mmHg 67%
11:00 +26°C° 0.1 mm 2 mps 735 mmHg 63%
12:00 +26°C° 0.2 mm 2 mps 735 mmHg 61%
13:00 +27°C° 0.2 mm 2 mps 734 mmHg 59%
14:00 +27°C° 0.2 mm 3 mps 734 mmHg 57%
15:00 +27°C° 0.6 mm 3 mps 734 mmHg 59%
16:00 +27°C° 0.6 mm 3 mps 734 mmHg 60%
17:00 +27°C° 0.6 mm 3 mps 733 mmHg 62%
18:00 +25°C° 0.4 mm 2 mps 733 mmHg 68%
19:00 +23°C° 0.4 mm 2 mps 733 mmHg 73%
20:00 +22°C° 0.4 mm 1 mps 733 mmHg 79%
21:00 +21°C° 0 mm 1 mps 733 mmHg 81%
22:00 +20°C° 0 mm 1 mps 733 mmHg 82%
23:00 +20°C° 0 mm 1 mps 734 mmHg 84%

10 August, Monday

Time Temperature Precipitation Wind Pressure Humidity
00:00 +19°C° 0 mm 1 mps 733 mmHg 85%
01:00 +19°C° 0 mm 1 mps 733 mmHg 85%
02:00 +19°C° 0 mm 1 mps 733 mmHg 86%
03:00 +19°C° 0 mm 1 mps 733 mmHg 86%
04:00 +18°C° 0 mm 1 mps 733 mmHg 87%
05:00 +18°C° 0 mm 1 mps 733 mmHg 87%
06:00 +19°C° 0 mm 1 mps 733 mmHg 83%
07:00 +21°C° 0 mm 1 mps 733 mmHg 78%
08:00 +22°C° 0 mm 1 mps 733 mmHg 74%
09:00 +24°C° 0.1 mm 1 mps 734 mmHg 69%
10:00 +25°C° 0.1 mm 1 mps 734 mmHg 64%
11:00 +26°C° 0.1 mm 2 mps 734 mmHg 59%
12:00 +27°C° 0.1 mm 2 mps 734 mmHg 56%
13:00 +27°C° 0.1 mm 1 mps 733 mmHg 53%
14:00 +28°C° 0.1 mm 1 mps 733 mmHg 50%
15:00 +28°C° 0 mm 2 mps 733 mmHg 51%
16:00 +28°C° 0 mm 2 mps 733 mmHg 52%
17:00 +28°C° 0 mm 2 mps 733 mmHg 53%
18:00 +26°C° 0.2 mm 2 mps 733 mmHg 61%
19:00 +24°C° 0.2 mm 2 mps 733 mmHg 69%
20:00 +21°C° 0.2 mm 2 mps 733 mmHg 77%
21:00 +21°C° 0 mm 1 mps 733 mmHg 79%
22:00 +20°C° 0 mm 1 mps 733 mmHg 80%
23:00 +20°C° 0 mm 1 mps 733 mmHg 82%

11 August, Tuesday

Time Temperature Precipitation Wind Pressure Humidity
00:00 +19°C° 0 mm 1 mps 733 mmHg 83%
01:00 +19°C° 0 mm 1 mps 733 mmHg 84%
02:00 +19°C° 0 mm 1 mps 732 mmHg 85%
03:00 +18°C° 0 mm 1 mps 732 mmHg 86%
04:00 +18°C° 0 mm 1 mps 732 mmHg 87%
05:00 +18°C° 0 mm 1 mps 732 mmHg 88%
06:00 +19°C° 0 mm 1 mps 733 mmHg 83%
07:00 +21°C° 0 mm 1 mps 733 mmHg 78%
08:00 +23°C° 0 mm 1 mps 733 mmHg 73%
09:00 +24°C° 0 mm 1 mps 733 mmHg 67%
10:00 +24°C° 0 mm 0 mps 733 mmHg 61%
11:00 +25°C° 0 mm 0 mps 733 mmHg 55%
12:00 +26°C° 0 mm 0 mps 733 mmHg 52%
13:00 +28°C° 0 mm 1 mps 732 mmHg 49%
14:00 +29°C° 0 mm 1 mps 732 mmHg 47%
15:00 +28°C° 0 mm 1 mps 732 mmHg 49%
16:00 +28°C° 0 mm 2 mps 732 mmHg 52%
17:00 +28°C° 0 mm 2 mps 732 mmHg 54%
18:00 +26°C° 0.1 mm 2 mps 732 mmHg 61%
19:00 +24°C° 0.1 mm 2 mps 731 mmHg 67%
20:00 +21°C° 0.1 mm 2 mps 731 mmHg 74%
21:00 +21°C° 0 mm 2 mps 731 mmHg 76%
22:00 +21°C° 0 mm 1 mps 731 mmHg 79%
23:00 +20°C° 0 mm 1 mps 731 mmHg 82%

12 August, Wednesday

Time Temperature Precipitation Wind Pressure Humidity
00:00 +20°C° 0 mm 1 mps 731 mmHg 83%
01:00 +20°C° 0 mm 1 mps 731 mmHg 84%
02:00 +19°C° 0 mm 1 mps 731 mmHg 86%
03:00 +19°C° 0 mm 1 mps 731 mmHg 87%
04:00 +19°C° 0 mm 1 mps 731 mmHg 89%
05:00 +17°C° 0 mm 2 mps 731 mmHg 90%
06:00 +18°C° 0 mm 2 mps 731 mmHg 87%
07:00 +20°C° 0 mm 2 mps 731 mmHg 83%
08:00 +21°C° 0 mm 2 mps 732 mmHg 79%
09:00 +22°C° 1.1 mm 3 mps 732 mmHg 77%
10:00 +23°C° 1.1 mm 4 mps 732 mmHg 75%
11:00 +23°C° 1.1 mm 4 mps 732 mmHg 73%
12:00 +25°C° 0.5 mm 4 mps 732 mmHg 72%
13:00 +25°C° 0.5 mm 4 mps 732 mmHg 71%
14:00 +25°C° 0.5 mm 4 mps 731 mmHg 69%
15:00 +23°C° 0.1 mm 5 mps 731 mmHg 68%
16:00 +23°C° 0.1 mm 5 mps 731 mmHg 68%
17:00 +23°C° 0.1 mm 5 mps 731 mmHg 67%
18:00 +21°C° 0 mm 4 mps 732 mmHg 70%
19:00 +19°C° 0 mm 4 mps 732 mmHg 74%
20:00 +17°C° 0 mm 3 mps 732 mmHg 77%
21:00 +17°C° 0 mm 3 mps 732 mmHg 79%
22:00 +16°C° 0 mm 3 mps 732 mmHg 82%
23:00 +14°C° 0 mm 3 mps 732 mmHg 84%
Show more